EW8956 Weather Reports


time (UTC)temp
C
wind
direction
speed
KPH
gust
KPH
rain 1hr
cm
rain 24hr
cm
rain mn
cm
humidity
%
barometer
mb
20260502181607 13 0 0.0 4.8 0.00 0.00 0.00 48 1013.5
20260502080103 11 0 0.0 1.6 0.00 0.00 0.00 81 1013.0
20260502070049 11 0 0.0 0.0 0.00 0.00 0.00 81 1012.7
20260502064556 11 0 0.0 0.0 0.00 0.00 0.00 81 1012.8
20260502063048 11 0 0.0 1.6 0.00 0.00 0.00 81 1013.2
20260502061551 11 0 0.0 3.2 0.00 0.00 0.00 81 1013.3
20260502060046 11 0 0.0 3.2 0.00 0.00 0.00 81 1013.4
20260502054543 11 0 0.0 0.0 0.00 0.00 0.00 80 1012.9
20260502053047 11 0 0.0 0.0 0.00 0.00 0.00 81 1012.8
20260502051543 11 0 0.0 0.0 0.00 0.00 0.00 85 1013.0
20260502050044 11 0 0.0 0.0 0.00 0.00 0.00 79 1013.1
20260502044549 11 0 0.0 0.0 0.00 0.00 0.00 79 1013.2
20260502043045 11 0 0.0 1.6 0.00 0.00 0.00 78 1013.2
20260502041544 11 0 0.0 0.0 0.00 0.00 0.00 78 1013.2
20260502040057 12 0 0.0 0.0 0.00 0.00 0.00 77 1013.3
20260502034551 12 0 0.0 1.6 0.00 0.00 0.00 76 1013.4
20260502033040 12 0 0.0 4.8 0.00 0.00 0.00 76 1013.5
20260502031555 12 0 0.0 1.6 0.00 0.00 0.00 75 1013.6
20260502030047 12 229 0.0 3.2 0.00 0.00 0.00 75 1013.6
20260502024545 12 0 0.0 1.6 0.00 0.00 0.00 75 1013.7
20260502023050 12 0 0.0 6.4 0.00 0.00 0.00 74 1013.5
20260502021544 12 165 0.0 4.8 0.00 0.00 0.00 74 1013.6
20260502020105 12 0 0.0 6.4 0.00 0.00 0.00 73 1013.4
20260502014550 13 0 0.0 4.8 0.00 0.00 0.00 73 1013.7
20260502013043 13 0 0.0 4.8 0.00 0.00 0.00 74 1013.7
20260502011551 13 98 1.6 9.7 0.00 0.00 0.00 73 1013.4
20260502010046 13 0 0.0 9.7 0.00 0.00 0.00 71 1013.4
20260502004554 14 0 0.0 6.4 0.00 0.00 0.00 69 1013.0
20260502003046 14 0 0.0 4.8 0.00 0.00 0.00 68 1012.8
20260502001619 15 225 0.0 12.9 0.00 0.00 0.00 65 1012.7
20260502000050 15 157 0.0 11.3 0.00 0.00 0.00 63 1012.2
20260501234546 15 0 0.0 12.9 0.00 0.00 0.00 61 1012.1
20260501233052 15 0 1.6 12.9 0.00 0.00 0.00 58 1012.4
20260501231550 16 175 0.0 6.4 0.00 0.00 0.00 55 1012.2
20260501230056 16 112 3.2 12.9 0.00 0.00 0.00 55 1012.3
20260501224600 16 180 0.0 11.3 0.00 0.00 0.00 55 1012.1
20260501223050 17 94 6.4 16.1 0.00 0.00 0.00 53 1012.2
20260501221553 17 217 3.2 11.3 0.00 0.00 0.00 52 1012.1
20260501220057 17 169 3.2 14.5 0.00 0.00 0.00 52 1012.3
20260501214555 18 177 3.2 14.5 0.00 0.00 0.00 51 1012.4
20260501213106 18 146 4.8 14.5 0.00 0.00 0.00 50 1012.3
20260501211553 18 229 3.2 16.1 0.00 0.00 0.00 49 1012.4
20260501210052 18 125 0.0 11.3 0.00 0.00 0.00 48 1012.4
20260501204550 18 113 4.8 19.3 0.00 0.00 0.00 46 1012.5
20260501203055 19 234 1.6 14.5 0.00 0.00 0.00 45 1012.7
20260501201552 20 143 1.6 9.7 0.00 0.00 0.00 44 1012.8
20260501200051 19 137 1.6 14.5 0.00 0.00 0.00 42 1013.0
20260501194554 20 0 0.0 9.7 0.00 0.00 0.00 42 1013.4
20260501193051 18 216 3.2 11.3 0.00 0.00 0.00 43 1013.5
20260501191551 19 223 3.2 9.7 0.00 0.00 0.00 40 1013.7
20260501190048 19 143 3.2 14.5 0.00 0.00 0.00 40 1014.1
20260501184550 18 105 1.6 11.3 0.00 0.00 0.00 40 1014.3
20260501183051 18 0 1.6 16.1 0.00 0.00 0.00 41 1014.6